Year,Month,Day,Hour,Minute,Value (Times are PST for temperature in C)
2017,07,05,00,00,11.30
2017,07,05,00,01,11.30
2017,07,05,00,02,11.30
2017,07,05,00,03,11.30
2017,07,05,00,04,11.30
2017,07,05,00,05,11.30
2017,07,05,00,06,11.30
2017,07,05,00,07,11.30
2017,07,05,00,08,11.30
2017,07,05,00,09,11.30
2017,07,05,00,10,11.30
2017,07,05,00,11,11.30
2017,07,05,00,12,11.30
2017,07,05,00,13,11.30
2017,07,05,00,14,11.30
2017,07,05,00,15,11.20
2017,07,05,00,16,11.20
2017,07,05,00,17,11.20
2017,07,05,00,18,11.20
2017,07,05,00,19,11.20
2017,07,05,00,20,11.20
2017,07,05,00,21,11.20
2017,07,05,00,22,11.20
2017,07,05,00,23,11.20
2017,07,05,00,24,11.20
2017,07,05,00,25,11.20
2017,07,05,00,26,11.20
2017,07,05,00,27,11.20
2017,07,05,00,28,11.20
2017,07,05,00,29,11.20
2017,07,05,00,30,11.20
2017,07,05,00,31,11.20
2017,07,05,00,32,11.20
2017,07,05,00,33,11.10
2017,07,05,00,34,11.10
2017,07,05,00,35,11.10
2017,07,05,00,36,11.10
2017,07,05,00,37,11.10
2017,07,05,00,38,11.00
2017,07,05,00,39,11.00
2017,07,05,00,40,11.00
2017,07,05,00,41,11.00
2017,07,05,00,42,11.00
2017,07,05,00,43,11.00
2017,07,05,00,44,11.00
2017,07,05,00,45,11.00
2017,07,05,00,46,11.00
2017,07,05,00,47,11.00
2017,07,05,00,48,11.00
2017,07,05,00,49,11.00
2017,07,05,00,50,11.00
2017,07,05,00,51,11.10
2017,07,05,00,52,11.10
2017,07,05,00,53,11.10
2017,07,05,00,54,11.10
2017,07,05,00,55,11.00
2017,07,05,00,56,11.00
2017,07,05,00,57,11.00
2017,07,05,00,58,11.00
2017,07,05,00,59,10.90
2017,07,05,01,00,10.90
2017,07,05,01,01,10.90
2017,07,05,01,02,10.90
2017,07,05,01,03,10.90
2017,07,05,01,04,10.90
2017,07,05,01,05,10.90
2017,07,05,01,06,10.90
2017,07,05,01,07,10.90
2017,07,05,01,08,10.90
2017,07,05,01,09,10.90
2017,07,05,01,10,10.90
2017,07,05,01,11,10.90
2017,07,05,01,12,11.00
2017,07,05,01,13,11.00
2017,07,05,01,14,11.00
2017,07,05,01,15,11.00
2017,07,05,01,16,11.00
2017,07,05,01,17,11.00
2017,07,05,01,18,11.00
2017,07,05,01,19,10.90
2017,07,05,01,20,10.90
2017,07,05,01,21,10.90
2017,07,05,01,22,10.90
2017,07,05,01,23,10.90
2017,07,05,01,24,10.90
2017,07,05,01,25,10.90
2017,07,05,01,26,10.90
2017,07,05,01,27,10.80
2017,07,05,01,28,10.80
2017,07,05,01,29,10.80
2017,07,05,01,30,10.80
2017,07,05,01,31,10.80
2017,07,05,01,32,10.80
2017,07,05,01,33,10.80
2017,07,05,01,34,10.80
2017,07,05,01,35,10.80
2017,07,05,01,36,10.80
2017,07,05,01,37,10.80
2017,07,05,01,38,10.70
2017,07,05,01,39,10.70
2017,07,05,01,40,10.70
2017,07,05,01,41,10.70
2017,07,05,01,42,10.70
2017,07,05,01,43,10.70
2017,07,05,01,44,10.70
2017,07,05,01,45,10.70
2017,07,05,01,46,10.70
2017,07,05,01,47,10.70
2017,07,05,01,48,10.60
2017,07,05,01,49,10.60
2017,07,05,01,50,10.60
2017,07,05,01,51,10.60
2017,07,05,01,52,10.60
2017,07,05,01,53,10.50
2017,07,05,01,54,10.50
2017,07,05,01,55,10.40
2017,07,05,01,56,10.40
2017,07,05,01,57,10.50
2017,07,05,01,58,10.50
2017,07,05,01,59,10.50
2017,07,05,02,00,10.40
2017,07,05,02,01,10.40
2017,07,05,02,02,10.40
2017,07,05,02,03,10.40
2017,07,05,02,04,10.40
2017,07,05,02,05,10.40
2017,07,05,02,06,10.40
2017,07,05,02,07,10.40
2017,07,05,02,08,10.40
2017,07,05,02,09,10.40
2017,07,05,02,10,10.40
2017,07,05,02,11,10.40
2017,07,05,02,12,10.40
2017,07,05,02,13,10.40
2017,07,05,02,14,10.40
2017,07,05,02,15,10.30
2017,07,05,02,16,10.30
2017,07,05,02,17,10.30
2017,07,05,02,18,10.30
2017,07,05,02,19,10.30
2017,07,05,02,20,10.20
2017,07,05,02,21,10.20
2017,07,05,02,22,10.20
2017,07,05,02,23,10.20
2017,07,05,02,24,10.20
2017,07,05,02,25,10.20
2017,07,05,02,26,10.20
2017,07,05,02,27,10.20
2017,07,05,02,28,10.10
2017,07,05,02,29,10.10
2017,07,05,02,30,10.10
2017,07,05,02,31,10.10
2017,07,05,02,32,10.10
2017,07,05,02,33,10.10
2017,07,05,02,34,10.00
2017,07,05,02,35,10.00
2017,07,05,02,36,10.00
2017,07,05,02,37,9.90
2017,07,05,02,38,9.90
2017,07,05,02,39,9.90
2017,07,05,02,40,9.90
2017,07,05,02,41,9.90
2017,07,05,02,42,9.90
2017,07,05,02,43,9.80
2017,07,05,02,44,9.80
2017,07,05,02,45,9.80
2017,07,05,02,46,9.80
2017,07,05,02,47,9.80
2017,07,05,02,48,9.80
2017,07,05,02,49,9.80
2017,07,05,02,50,9.80
2017,07,05,02,51,9.80
2017,07,05,02,52,9.80
2017,07,05,02,53,9.70
2017,07,05,02,54,9.70
2017,07,05,02,55,9.70
2017,07,05,02,56,9.70
2017,07,05,02,57,9.70
2017,07,05,02,58,9.70
2017,07,05,02,59,9.70
2017,07,05,03,00,9.70
2017,07,05,03,01,9.70
2017,07,05,03,02,9.70
2017,07,05,03,03,9.70
2017,07,05,03,04,9.70
2017,07,05,03,05,9.70
2017,07,05,03,06,9.70
2017,07,05,03,07,9.60
2017,07,05,03,08,9.60
2017,07,05,03,09,9.60
2017,07,05,03,10,9.60
2017,07,05,03,11,9.60
2017,07,05,03,12,9.60
2017,07,05,03,13,9.60
2017,07,05,03,14,9.60
2017,07,05,03,15,9.50
2017,07,05,03,16,9.50
2017,07,05,03,17,9.50
2017,07,05,03,18,9.50
2017,07,05,03,19,9.50
2017,07,05,03,20,9.50
2017,07,05,03,21,9.50
2017,07,05,03,22,9.50
2017,07,05,03,23,9.50
2017,07,05,03,24,9.50
2017,07,05,03,25,9.50
2017,07,05,03,26,9.60
2017,07,05,03,27,9.60
2017,07,05,03,28,9.60
2017,07,05,03,29,9.60
2017,07,05,03,30,9.60
2017,07,05,03,31,9.60
2017,07,05,03,32,9.60
2017,07,05,03,33,9.60
2017,07,05,03,34,9.60
2017,07,05,03,35,9.60
2017,07,05,03,36,9.70
2017,07,05,03,37,9.70
2017,07,05,03,38,9.70
2017,07,05,03,39,9.70
2017,07,05,03,40,9.70
2017,07,05,03,41,9.70
2017,07,05,03,42,9.70
2017,07,05,03,43,9.70
2017,07,05,03,44,9.70
2017,07,05,03,45,9.60
2017,07,05,03,46,9.60
2017,07,05,03,47,9.60
2017,07,05,03,48,9.60
2017,07,05,03,49,9.60
2017,07,05,03,50,9.60
2017,07,05,03,51,9.60
2017,07,05,03,52,9.60
2017,07,05,03,53,9.60
2017,07,05,03,54,9.60
2017,07,05,03,55,9.60
2017,07,05,03,56,9.60
2017,07,05,03,57,9.50
2017,07,05,03,58,9.50
2017,07,05,03,59,9.50
2017,07,05,04,00,9.50
2017,07,05,04,01,9.40
2017,07,05,04,02,9.40
2017,07,05,04,03,9.40
2017,07,05,04,04,9.40
2017,07,05,04,05,9.40
2017,07,05,04,06,9.40
2017,07,05,04,07,9.40
2017,07,05,04,08,9.40
2017,07,05,04,09,9.30
2017,07,05,04,10,9.30
2017,07,05,04,11,9.30
2017,07,05,04,12,9.30
2017,07,05,04,13,9.30
2017,07,05,04,14,9.30
2017,07,05,04,15,9.30
2017,07,05,04,16,9.30
2017,07,05,04,17,9.30
2017,07,05,04,18,9.30
2017,07,05,04,19,9.30
2017,07,05,04,20,9.20
2017,07,05,04,21,9.20
2017,07,05,04,22,9.20
2017,07,05,04,23,9.20
2017,07,05,04,24,9.20
2017,07,05,04,25,9.20
2017,07,05,04,26,9.20
2017,07,05,04,27,9.10
2017,07,05,04,28,9.10
2017,07,05,04,29,9.10
2017,07,05,04,30,9.10
2017,07,05,04,31,9.10
2017,07,05,04,32,9.10
2017,07,05,04,33,9.10
2017,07,05,04,34,9.10
2017,07,05,04,35,9.00
2017,07,05,04,36,9.00
2017,07,05,04,37,9.00
2017,07,05,04,38,9.00
2017,07,05,04,39,9.00
2017,07,05,04,40,9.00
2017,07,05,04,41,9.00
2017,07,05,04,42,9.00
2017,07,05,04,43,9.00
2017,07,05,04,44,9.00
2017,07,05,04,45,9.00
2017,07,05,04,46,9.00
2017,07,05,04,47,9.00
2017,07,05,04,48,9.00
2017,07,05,04,49,9.00
2017,07,05,04,50,9.00
2017,07,05,04,51,9.00
2017,07,05,04,52,9.00
2017,07,05,04,53,9.00
2017,07,05,04,54,9.00
2017,07,05,04,55,9.00
2017,07,05,04,56,9.00
2017,07,05,04,57,9.10
2017,07,05,04,58,9.00
2017,07,05,04,59,9.00
2017,07,05,05,00,9.10
2017,07,05,05,01,9.00
2017,07,05,05,02,9.00
2017,07,05,05,03,9.00
2017,07,05,05,04,9.00
2017,07,05,05,05,8.90
2017,07,05,05,06,8.90
2017,07,05,05,07,8.90
2017,07,05,05,08,8.90
2017,07,05,05,09,8.90
2017,07,05,05,10,8.90
2017,07,05,05,11,8.90
2017,07,05,05,12,8.90
2017,07,05,05,13,8.90
2017,07,05,05,14,8.90
2017,07,05,05,15,8.90
2017,07,05,05,16,8.90
2017,07,05,05,17,8.90
2017,07,05,05,18,8.90
2017,07,05,05,19,8.90
2017,07,05,05,20,8.90
2017,07,05,05,21,8.90
2017,07,05,05,22,8.90
2017,07,05,05,23,8.90
2017,07,05,05,24,8.90
2017,07,05,05,25,8.90
2017,07,05,05,26,8.90
2017,07,05,05,27,8.80
2017,07,05,05,28,8.80
2017,07,05,05,29,8.80
2017,07,05,05,30,8.80
2017,07,05,05,31,8.80
2017,07,05,05,32,8.80
2017,07,05,05,33,8.80
2017,07,05,05,34,8.70
2017,07,05,05,35,8.70
2017,07,05,05,36,8.70
2017,07,05,05,37,8.70
2017,07,05,05,38,8.70
2017,07,05,05,39,8.70
2017,07,05,05,40,8.70
2017,07,05,05,41,8.70
2017,07,05,05,42,8.70
2017,07,05,05,43,8.70
2017,07,05,05,44,8.70
2017,07,05,05,45,8.70
2017,07,05,05,46,8.70
2017,07,05,05,47,8.70
2017,07,05,05,48,8.80
2017,07,05,05,49,8.80
2017,07,05,05,50,8.80
2017,07,05,05,51,8.80
2017,07,05,05,52,8.80
2017,07,05,05,53,8.80
2017,07,05,05,54,8.70
2017,07,05,05,55,8.70
2017,07,05,05,56,8.70
2017,07,05,05,57,8.70
2017,07,05,05,58,8.70
2017,07,05,05,59,8.70
2017,07,05,06,00,8.70
2017,07,05,06,01,8.70
2017,07,05,06,02,8.70
2017,07,05,06,03,8.70
2017,07,05,06,04,8.70
2017,07,05,06,05,8.70
2017,07,05,06,06,8.80
2017,07,05,06,07,8.80
2017,07,05,06,08,8.80
2017,07,05,06,09,8.80
2017,07,05,06,10,8.80
2017,07,05,06,11,8.80
2017,07,05,06,12,8.80
2017,07,05,06,13,8.80
2017,07,05,06,14,8.80
2017,07,05,06,15,8.90
2017,07,05,06,16,8.90
2017,07,05,06,17,8.90
2017,07,05,06,18,8.90
2017,07,05,06,19,8.90
2017,07,05,06,20,8.90
2017,07,05,06,21,8.90
2017,07,05,06,22,9.00
2017,07,05,06,23,9.00
2017,07,05,06,24,9.00
2017,07,05,06,25,9.10
2017,07,05,06,26,9.10
2017,07,05,06,27,9.20
2017,07,05,06,28,9.20
2017,07,05,06,29,9.20
2017,07,05,06,30,9.30
2017,07,05,06,31,9.30
2017,07,05,06,32,9.30
2017,07,05,06,33,9.30
2017,07,05,06,34,9.30
2017,07,05,06,35,9.40
2017,07,05,06,36,9.40
2017,07,05,06,37,9.40
2017,07,05,06,38,9.50
2017,07,05,06,39,9.50
2017,07,05,06,40,9.50
2017,07,05,06,41,9.50
2017,07,05,06,42,9.60
2017,07,05,06,43,9.60
2017,07,05,06,44,9.60
2017,07,05,06,45,9.60
2017,07,05,06,46,9.60
2017,07,05,06,47,9.60
2017,07,05,06,48,9.60
2017,07,05,06,49,9.60
2017,07,05,06,50,9.60
2017,07,05,06,51,9.70
2017,07,05,06,52,9.70
2017,07,05,06,53,9.70
2017,07,05,06,54,9.70
2017,07,05,06,55,9.70
2017,07,05,06,56,9.70
2017,07,05,06,57,9.80
2017,07,05,06,58,9.80
2017,07,05,06,59,9.80
2017,07,05,07,00,9.80
2017,07,05,07,01,9.90
2017,07,05,07,02,9.90
2017,07,05,07,03,10.00
2017,07,05,07,04,10.00
2017,07,05,07,05,10.10
2017,07,05,07,06,10.10
2017,07,05,07,07,10.10
2017,07,05,07,08,10.20
2017,07,05,07,09,10.20
2017,07,05,07,10,10.20
2017,07,05,07,11,10.20
2017,07,05,07,12,10.30
2017,07,05,07,13,10.30
2017,07,05,07,14,10.30
2017,07,05,07,15,10.40
2017,07,05,07,16,10.40
2017,07,05,07,17,10.50
2017,07,05,07,18,10.50
2017,07,05,07,19,10.60
2017,07,05,07,20,10.60
2017,07,05,07,21,10.70
2017,07,05,07,22,10.70
2017,07,05,07,23,10.80
2017,07,05,07,24,10.80
2017,07,05,07,25,10.90
2017,07,05,07,26,10.90
2017,07,05,07,27,10.90
2017,07,05,07,28,11.00
2017,07,05,07,29,11.00
2017,07,05,07,30,11.10
2017,07,05,07,31,11.10
2017,07,05,07,32,11.20
2017,07,05,07,33,11.30
2017,07,05,07,34,11.40
2017,07,05,07,35,11.50
2017,07,05,07,36,11.50
2017,07,05,07,37,11.60
2017,07,05,07,38,11.70
2017,07,05,07,39,11.80
2017,07,05,07,40,11.90
2017,07,05,07,41,11.90
2017,07,05,07,42,12.00
2017,07,05,07,43,12.10
2017,07,05,07,44,12.10
2017,07,05,07,45,12.10
2017,07,05,07,46,12.20
2017,07,05,07,47,12.20
2017,07,05,07,48,12.20
2017,07,05,07,49,12.20
2017,07,05,07,50,12.30
2017,07,05,07,51,12.20
2017,07,05,07,52,12.20
2017,07,05,07,53,12.20
2017,07,05,07,54,12.20
2017,07,05,07,55,12.20
2017,07,05,07,56,12.20
2017,07,05,07,57,12.20
2017,07,05,07,58,12.20
2017,07,05,07,59,12.20
2017,07,05,08,00,12.30
2017,07,05,08,01,12.30
2017,07,05,08,02,12.30
2017,07,05,08,03,12.30
2017,07,05,08,04,12.40
2017,07,05,08,05,12.40
2017,07,05,08,06,12.40
2017,07,05,08,07,12.40
2017,07,05,08,08,12.50
2017,07,05,08,09,12.50
2017,07,05,08,10,12.60
2017,07,05,08,11,12.60
2017,07,05,08,12,12.70
2017,07,05,08,13,12.70
2017,07,05,08,14,12.80
2017,07,05,08,15,12.80
2017,07,05,08,16,12.80
2017,07,05,08,17,12.80
2017,07,05,08,18,12.80
2017,07,05,08,19,12.80
2017,07,05,08,20,12.80
2017,07,05,08,21,12.80
2017,07,05,08,22,12.80
2017,07,05,08,23,12.80
2017,07,05,08,24,12.80
2017,07,05,08,25,12.80
2017,07,05,08,26,12.90
2017,07,05,08,27,12.90
2017,07,05,08,28,13.00
2017,07,05,08,29,13.00
2017,07,05,08,30,13.00
2017,07,05,08,31,12.90
2017,07,05,08,32,12.90
2017,07,05,08,33,12.90
2017,07,05,08,34,12.90
2017,07,05,08,35,13.00
2017,07,05,08,36,13.00
2017,07,05,08,37,13.00
2017,07,05,08,38,13.10
2017,07,05,08,39,13.10
2017,07,05,08,40,13.10
2017,07,05,08,41,13.20
2017,07,05,08,42,13.20
2017,07,05,08,43,13.20
2017,07,05,08,44,13.30
2017,07,05,08,45,13.30
2017,07,05,08,46,13.30
2017,07,05,08,47,13.30
2017,07,05,08,48,13.30
2017,07,05,08,49,13.30
2017,07,05,08,50,13.40
2017,07,05,08,51,13.40
2017,07,05,08,52,13.40
2017,07,05,08,53,13.40
2017,07,05,08,54,13.30
2017,07,05,08,55,13.30
2017,07,05,08,56,13.30
2017,07,05,08,57,13.30
2017,07,05,08,58,13.30
2017,07,05,08,59,13.30
2017,07,05,09,00,13.30
2017,07,05,09,01,13.30
2017,07,05,09,02,13.30
2017,07,05,09,03,13.30
2017,07,05,09,04,13.30
2017,07,05,09,05,13.30
2017,07,05,09,06,13.30
2017,07,05,09,07,13.30
2017,07,05,09,08,13.40
2017,07,05,09,09,13.50
2017,07,05,09,10,13.60
2017,07,05,09,11,13.60
2017,07,05,09,12,13.70
2017,07,05,09,13,13.70
2017,07,05,09,14,13.80
2017,07,05,09,15,13.90
2017,07,05,09,16,13.90
2017,07,05,09,17,13.90
2017,07,05,09,18,14.00
2017,07,05,09,19,14.00
2017,07,05,09,20,14.10
2017,07,05,09,21,14.00
2017,07,05,09,22,14.00
2017,07,05,09,23,14.00
2017,07,05,09,24,14.00
2017,07,05,09,25,14.00
2017,07,05,09,26,14.10
2017,07,05,09,27,14.20
2017,07,05,09,28,14.20
2017,07,05,09,29,14.30
2017,07,05,09,30,14.30
2017,07,05,09,31,14.30
2017,07,05,09,32,14.30
2017,07,05,09,33,14.30
2017,07,05,09,34,14.30
2017,07,05,09,35,14.30
2017,07,05,09,36,14.30
2017,07,05,09,37,14.30
2017,07,05,09,38,14.40
2017,07,05,09,39,14.40
2017,07,05,09,40,14.40
2017,07,05,09,41,14.40
2017,07,05,09,42,14.50
2017,07,05,09,43,14.50
2017,07,05,09,44,14.50
2017,07,05,09,45,14.50
2017,07,05,09,46,14.50
2017,07,05,09,47,14.60
2017,07,05,09,48,14.60
2017,07,05,09,49,14.60
2017,07,05,09,50,14.70
2017,07,05,09,51,14.70
2017,07,05,09,52,14.80
2017,07,05,09,53,14.80
2017,07,05,09,54,14.80
2017,07,05,09,55,14.90
2017,07,05,09,56,15.00
2017,07,05,09,57,15.00
2017,07,05,09,58,15.00
2017,07,05,09,59,15.00
2017,07,05,10,00,15.10
2017,07,05,10,01,15.10
2017,07,05,10,02,15.20
2017,07,05,10,03,15.20
2017,07,05,10,04,15.20
2017,07,05,10,05,15.20
2017,07,05,10,06,15.20
2017,07,05,10,07,15.30
2017,07,05,10,08,15.30
2017,07,05,10,09,15.30
2017,07,05,10,10,15.30
2017,07,05,10,11,15.30
2017,07,05,10,12,15.30
2017,07,05,10,13,15.20
2017,07,05,10,14,15.30
2017,07,05,10,15,15.30
2017,07,05,10,16,15.30
2017,07,05,10,17,15.40
2017,07,05,10,18,15.40
2017,07,05,10,19,15.50
2017,07,05,10,20,15.50
2017,07,05,10,21,15.50
2017,07,05,10,22,15.60
2017,07,05,10,23,15.60
2017,07,05,10,24,15.60
2017,07,05,10,25,15.70
2017,07,05,10,26,15.80
2017,07,05,10,27,15.80
2017,07,05,10,28,15.90
2017,07,05,10,29,15.90
2017,07,05,10,30,15.90
2017,07,05,10,31,15.90
2017,07,05,10,32,15.90
2017,07,05,10,33,15.90
2017,07,05,10,34,15.90
2017,07,05,10,35,16.00
2017,07,05,10,36,16.10
2017,07,05,10,37,16.10
2017,07,05,10,38,16.10
2017,07,05,10,39,16.10
2017,07,05,10,40,16.10
2017,07,05,10,41,16.10
2017,07,05,10,42,16.10
2017,07,05,10,43,16.10
2017,07,05,10,44,16.00
2017,07,05,10,45,15.90
2017,07,05,10,46,15.90
2017,07,05,10,47,15.80
2017,07,05,10,48,15.80
2017,07,05,10,49,15.80
2017,07,05,10,50,15.80
2017,07,05,10,51,15.80
2017,07,05,10,52,15.80
2017,07,05,10,53,15.80
2017,07,05,10,54,15.80
2017,07,05,10,55,15.80
2017,07,05,10,56,15.80
2017,07,05,10,57,15.90
2017,07,05,10,58,15.90
2017,07,05,10,59,15.90
2017,07,05,11,00,15.90
2017,07,05,11,01,15.90
2017,07,05,11,02,16.00
2017,07,05,11,03,16.10
2017,07,05,11,04,16.10
2017,07,05,11,05,16.20
2017,07,05,11,06,16.30
2017,07,05,11,07,16.40
2017,07,05,11,08,16.50
2017,07,05,11,09,16.50
2017,07,05,11,10,16.60
2017,07,05,11,11,16.50
2017,07,05,11,12,16.40
2017,07,05,11,13,16.30
2017,07,05,11,14,16.30
2017,07,05,11,15,16.30
2017,07,05,11,16,16.30
2017,07,05,11,17,16.30
2017,07,05,11,18,16.30
2017,07,05,11,19,16.30
2017,07,05,11,20,16.30
2017,07,05,11,21,16.40
2017,07,05,11,22,16.50
2017,07,05,11,23,16.50
2017,07,05,11,24,16.60
2017,07,05,11,25,16.70
2017,07,05,11,26,16.80
2017,07,05,11,27,16.80
2017,07,05,11,28,16.90
2017,07,05,11,29,16.90
2017,07,05,11,30,16.90
2017,07,05,11,31,16.90
2017,07,05,11,32,16.80
2017,07,05,11,33,16.80
2017,07,05,11,34,16.80
2017,07,05,11,35,16.80
2017,07,05,11,36,16.80
2017,07,05,11,37,16.90
2017,07,05,11,38,17.10
2017,07,05,11,39,17.20
2017,07,05,11,40,17.30
2017,07,05,11,41,17.40
2017,07,05,11,42,17.50
2017,07,05,11,43,17.50
2017,07,05,11,44,17.50
2017,07,05,11,45,17.50
2017,07,05,11,46,17.50
2017,07,05,11,47,17.60
2017,07,05,11,48,17.70
2017,07,05,11,49,17.70
2017,07,05,11,50,17.70
2017,07,05,11,51,17.70
2017,07,05,11,52,17.80
2017,07,05,11,53,17.80
2017,07,05,11,54,17.80
2017,07,05,11,55,17.90
2017,07,05,11,56,17.90
2017,07,05,11,57,17.90
2017,07,05,11,58,18.00
2017,07,05,11,59,18.00
2017,07,05,12,00,18.10
2017,07,05,12,01,18.10
2017,07,05,12,02,18.10
2017,07,05,12,03,18.20
2017,07,05,12,04,18.20
2017,07,05,12,05,18.30
2017,07,05,12,06,18.30
2017,07,05,12,07,18.40
2017,07,05,12,08,18.50
2017,07,05,12,09,18.50
2017,07,05,12,10,18.50
2017,07,05,12,11,18.50
2017,07,05,12,12,18.40
2017,07,05,12,13,18.40
2017,07,05,12,14,18.40
2017,07,05,12,15,18.40
2017,07,05,12,16,18.40
2017,07,05,12,17,18.50
2017,07,05,12,18,18.40
2017,07,05,12,19,18.40
2017,07,05,12,20,18.50
2017,07,05,12,21,18.50
2017,07,05,12,22,18.60
2017,07,05,12,23,18.60
2017,07,05,12,24,18.70
2017,07,05,12,25,18.70
2017,07,05,12,26,18.80
2017,07,05,12,27,18.90
2017,07,05,12,28,18.90
2017,07,05,12,29,18.90
2017,07,05,12,30,18.80
2017,07,05,12,31,18.80
2017,07,05,12,32,18.70
2017,07,05,12,33,18.70
2017,07,05,12,34,18.60
2017,07,05,12,35,18.70
2017,07,05,12,36,18.70
2017,07,05,12,37,18.80
2017,07,05,12,38,19.00
2017,07,05,12,39,19.10
2017,07,05,12,40,19.20
2017,07,05,12,41,19.30
2017,07,05,12,42,19.40
2017,07,05,12,43,19.50
2017,07,05,12,44,19.50
2017,07,05,12,45,19.60
2017,07,05,12,46,19.60
2017,07,05,12,47,19.60
2017,07,05,12,48,19.60
2017,07,05,12,49,19.70
2017,07,05,12,50,19.70
2017,07,05,12,51,19.80
2017,07,05,12,52,19.80
2017,07,05,12,53,19.80
2017,07,05,12,54,19.90
2017,07,05,12,55,20.00
2017,07,05,12,56,20.10
2017,07,05,12,57,20.20
2017,07,05,12,58,20.30
2017,07,05,12,59,20.30
2017,07,05,13,00,20.40
2017,07,05,13,01,20.50
2017,07,05,13,02,20.60
2017,07,05,13,03,20.80
2017,07,05,13,04,20.80
2017,07,05,13,05,20.80
2017,07,05,13,06,20.90
2017,07,05,13,07,20.90
2017,07,05,13,08,20.80
2017,07,05,13,09,20.70
2017,07,05,13,10,20.70
2017,07,05,13,11,20.70
2017,07,05,13,12,20.70
2017,07,05,13,13,20.70
2017,07,05,13,14,20.60
2017,07,05,13,15,20.50
2017,07,05,13,16,20.30
2017,07,05,13,17,20.30
2017,07,05,13,18,20.20
2017,07,05,13,19,20.10
2017,07,05,13,20,20.20
2017,07,05,13,21,20.30
2017,07,05,13,22,20.30
2017,07,05,13,23,20.40
2017,07,05,13,24,20.50
2017,07,05,13,25,20.70
2017,07,05,13,26,20.80
2017,07,05,13,27,20.90
2017,07,05,13,28,20.90
2017,07,05,13,29,21.00
2017,07,05,13,30,21.00
2017,07,05,13,31,21.00
2017,07,05,13,32,21.00
2017,07,05,13,33,20.90
2017,07,05,13,34,21.00
2017,07,05,13,35,21.00
2017,07,05,13,36,21.00
2017,07,05,13,37,21.10
2017,07,05,13,38,21.10
2017,07,05,13,39,21.20
2017,07,05,13,40,21.30
2017,07,05,13,41,21.40
2017,07,05,13,42,21.50
2017,07,05,13,43,21.60
2017,07,05,13,44,21.60
2017,07,05,13,45,21.60
2017,07,05,13,46,21.50
2017,07,05,13,47,21.40
2017,07,05,13,48,21.40
2017,07,05,13,49,21.30
2017,07,05,13,50,21.30
2017,07,05,13,51,21.40
2017,07,05,13,52,21.50
2017,07,05,13,53,21.60
2017,07,05,13,54,21.70
2017,07,05,13,55,21.80
2017,07,05,13,56,21.90
2017,07,05,13,57,21.90
2017,07,05,13,58,21.90
2017,07,05,13,59,21.90
2017,07,05,14,00,21.90
2017,07,05,14,01,21.90
2017,07,05,14,02,21.90
2017,07,05,14,03,22.00
2017,07,05,14,04,22.00
2017,07,05,14,05,22.10
2017,07,05,14,06,22.10
2017,07,05,14,07,22.10
2017,07,05,14,08,22.10
2017,07,05,14,09,22.10
2017,07,05,14,10,22.00
2017,07,05,14,11,21.90
2017,07,05,14,12,21.90
2017,07,05,14,13,21.90
2017,07,05,14,14,21.90
2017,07,05,14,15,21.90
2017,07,05,14,16,21.90
2017,07,05,14,17,22.00
2017,07,05,14,18,22.00
2017,07,05,14,19,22.10
2017,07,05,14,20,22.20
2017,07,05,14,21,22.30
2017,07,05,14,22,22.30
2017,07,05,14,23,22.30
2017,07,05,14,24,22.20
2017,07,05,14,25,22.20
2017,07,05,14,26,22.20
2017,07,05,14,27,22.20
2017,07,05,14,28,22.20
2017,07,05,14,29,22.30
2017,07,05,14,30,22.50
2017,07,05,14,31,22.60
2017,07,05,14,32,22.80
2017,07,05,14,33,22.90
2017,07,05,14,34,23.00
2017,07,05,14,35,23.10
2017,07,05,14,36,23.10
2017,07,05,14,37,23.10
2017,07,05,14,38,23.10
2017,07,05,14,39,23.10
2017,07,05,14,40,23.10
2017,07,05,14,41,23.10
2017,07,05,14,42,23.10
2017,07,05,14,43,23.00
2017,07,05,14,44,23.00
2017,07,05,14,45,23.00
2017,07,05,14,46,22.90
2017,07,05,14,47,22.80
2017,07,05,14,48,22.70
2017,07,05,14,49,22.60
2017,07,05,14,50,22.50
2017,07,05,14,51,22.50
2017,07,05,14,52,22.50
2017,07,05,14,53,22.50
2017,07,05,14,54,22.60
2017,07,05,14,55,22.60
2017,07,05,14,56,22.70
2017,07,05,14,57,22.90
2017,07,05,14,58,23.00
2017,07,05,14,59,23.10
2017,07,05,15,00,23.10
2017,07,05,15,01,23.00
2017,07,05,15,02,23.00
2017,07,05,15,03,23.00
2017,07,05,15,04,22.90
2017,07,05,15,05,22.80
2017,07,05,15,06,22.70
2017,07,05,15,07,22.60
2017,07,05,15,08,22.60
2017,07,05,15,09,22.50
2017,07,05,15,10,22.60
2017,07,05,15,11,22.60
2017,07,05,15,12,22.70
2017,07,05,15,13,22.80
2017,07,05,15,14,22.90
2017,07,05,15,15,23.00
2017,07,05,15,16,23.10
2017,07,05,15,17,23.20
2017,07,05,15,18,23.20
2017,07,05,15,19,23.10
2017,07,05,15,20,23.10
2017,07,05,15,21,23.00
2017,07,05,15,22,23.00
2017,07,05,15,23,23.10
2017,07,05,15,24,23.10
2017,07,05,15,25,23.20
2017,07,05,15,26,23.20
2017,07,05,15,27,23.30
2017,07,05,15,28,23.30
2017,07,05,15,29,23.30
2017,07,05,15,30,23.30
2017,07,05,15,31,23.30
2017,07,05,15,32,23.30
2017,07,05,15,33,23.20
2017,07,05,15,34,23.10
2017,07,05,15,35,23.10
2017,07,05,15,36,23.00
2017,07,05,15,37,22.90
2017,07,05,15,38,22.90
2017,07,05,15,39,22.90
2017,07,05,15,40,22.80
2017,07,05,15,41,22.70
2017,07,05,15,42,22.70
2017,07,05,15,43,22.60
2017,07,05,15,44,22.60
2017,07,05,15,45,22.70
2017,07,05,15,46,22.70
2017,07,05,15,47,22.70
2017,07,05,15,48,22.50
2017,07,05,15,49,22.20
2017,07,05,15,50,22.00
2017,07,05,15,51,21.70
2017,07,05,15,52,21.50
2017,07,05,15,53,21.30
2017,07,05,15,54,21.10
2017,07,05,15,55,20.90
2017,07,05,15,56,20.70
2017,07,05,15,57,20.60
2017,07,05,15,58,20.50
2017,07,05,15,59,20.40
2017,07,05,16,00,20.40
2017,07,05,16,01,20.30
2017,07,05,16,02,20.30
2017,07,05,16,03,20.30
2017,07,05,16,04,20.40
2017,07,05,16,05,20.50
2017,07,05,16,06,20.60
2017,07,05,16,07,20.70
2017,07,05,16,08,20.80
2017,07,05,16,09,21.00
2017,07,05,16,10,21.20
2017,07,05,16,11,21.30
2017,07,05,16,12,21.40
2017,07,05,16,13,21.50
2017,07,05,16,14,21.60
2017,07,05,16,15,21.70
2017,07,05,16,16,21.70
2017,07,05,16,17,21.80
2017,07,05,16,18,21.90
2017,07,05,16,19,22.00
2017,07,05,16,20,22.00
2017,07,05,16,21,22.10
2017,07,05,16,22,22.20
2017,07,05,16,23,22.30
2017,07,05,16,24,22.30
2017,07,05,16,25,22.40
2017,07,05,16,26,22.40
2017,07,05,16,27,22.50
2017,07,05,16,28,22.50
2017,07,05,16,29,22.60
2017,07,05,16,30,22.50
2017,07,05,16,31,22.30
2017,07,05,16,32,22.20
2017,07,05,16,33,22.10
2017,07,05,16,34,22.00
2017,07,05,16,35,22.00
2017,07,05,16,36,22.00
2017,07,05,16,37,22.00
2017,07,05,16,38,21.90
2017,07,05,16,39,21.70
2017,07,05,16,40,21.60
2017,07,05,16,41,21.40
2017,07,05,16,42,21.30
2017,07,05,16,43,21.20
2017,07,05,16,44,21.00
2017,07,05,16,45,20.90
2017,07,05,16,46,20.80
2017,07,05,16,47,20.70
2017,07,05,16,48,20.70
2017,07,05,16,49,20.70
2017,07,05,16,50,20.60
2017,07,05,16,51,20.60
2017,07,05,16,52,20.60
2017,07,05,16,53,20.70
2017,07,05,16,54,20.70
2017,07,05,16,55,20.70
2017,07,05,16,56,20.70
2017,07,05,16,57,20.70
2017,07,05,16,58,20.70
2017,07,05,16,59,20.60
2017,07,05,17,00,20.60
2017,07,05,17,01,20.50
2017,07,05,17,02,20.40
2017,07,05,17,03,20.40
2017,07,05,17,04,20.30
2017,07,05,17,05,20.30
2017,07,05,17,06,20.20
2017,07,05,17,07,20.20
2017,07,05,17,08,20.10
2017,07,05,17,09,20.00
2017,07,05,17,10,19.90
2017,07,05,17,11,19.90
2017,07,05,17,12,19.80
2017,07,05,17,13,19.80
2017,07,05,17,14,19.80
2017,07,05,17,15,19.80
2017,07,05,17,16,19.90
2017,07,05,17,17,19.90
2017,07,05,17,18,19.90
2017,07,05,17,19,19.90
2017,07,05,17,20,19.90
2017,07,05,17,21,19.90
2017,07,05,17,22,19.80
2017,07,05,17,23,19.70
2017,07,05,17,24,19.60
2017,07,05,17,25,19.60
2017,07,05,17,26,19.60
2017,07,05,17,27,19.50
2017,07,05,17,28,19.40
2017,07,05,17,29,19.30
2017,07,05,17,30,19.30
2017,07,05,17,31,19.30